Tracking 21082 objects as of 5-Aug-2020
HD Live streaming from Space Station
objects crossing your sky now

FENGYUN 2D

Track FENGYUN 2D now!
FENGYUN 2D is classified as:


NORAD ID: 29640
Int'l Code: 2006-053A
Perigee: 36,331.9 km
Apogee: 36,442.0 km
Inclination: 6.9 °
Period: 1,466.5 minutes
Semi major axis: 42757 km
RCS: 2.4572 m2 (large)
Launch date: December 8, 2006
Source: People's Republic of China (PRC)
Launch site: Xichang Space Center, China (XSC)

Fengyun 2D is a Chinese made weather satellite. It is 5th satellite of the Fengyun 2 series. The satellite was launched atop Long March 3A rocket at Xichang Satellite Launch Center at 2006-12-08 08:53 CST. It entered an orbit of 202x36525 km at 09:17 CST. It will be positioned at 80.595 E above equator.
aabbcc
Your satellite tracking list
Your tracking list is empty




NASA's NSSDC Master Catalog

Two Line Element Set (TLE):
1 29640U 06053A   20217.29604875 -.00000055 +00000-0 +00000-0 0  9999
2 29640 006.9204 053.0146 0012875 349.6011 292.6107 00.98192344049954
Source of the keplerian elements: AFSPC